Regional Weather Roundup
Issued by NWS

Home | Current Version | Previous Version | Text Only | Print | Product List | Glossary On
Versions: 1 2 3 4 5 6 7 8 9 10 11 12 13 14 15 16 17 18 19 20 21 22 23 24 25 26 27 28 29 30 31 32 33 34 35 36 37 38 39 40 41 42 43 44 45 46 47 48 49 50
818
ASUS43 KLOT 091908
RWRIL

ILLINOIS REGIONAL WEATHER ROUNDUP
NATIONAL WEATHER SERVICE CHICAGO/ROMEOVILLE IL
100 PM CST MON DEC 09 2019

NOTE: "FAIR" INDICATES FEW OR NO CLOUDS BELOW 12,000 FEET WITH NO
SIGNIFICANT WEATHER AND/OR OBSTRUCTIONS TO VISIBILITY.

* THESE STATIONS ARE NOT UNDER NWS QUALITY CONTROL. THEY ALSO MAY NOT
  REPORT WEATHER SUCH AS PRECIPITATION OR FOG.

ILZ001-002-007-009-015-016-024-092000-
NORTHWEST ILLINOIS

CITY           SKY/WX    TMP DP  RH WIND       PRES   REMARKS
MOLINE         LGT RAIN  39  35  86 W20G33    29.55R FOG     WCI  29
STERLING*      LGT RAIN  45  45 100 MISG        N/A  FOG
SAVANNA*       CLOUDY    41  41 100 W12G22    29.50R FOG
$$

ILZ003-004-008-010-011-017-018-092000-
NORTH CENTRAL ILLINOIS

CITY           SKY/WX    TMP DP  RH WIND       PRES   REMARKS
ROCKFORD       LGT RAIN  46  44  93 W15       29.46S FOG
FREEPORT*      CLOUDY    42  42 100 W10G16    29.48S FOG
ROCHELLE*      DRIZZLE   45  45 100 W15       29.46F
DE KALB*       CLOUDY    46  46 100 W18       29.44F FOG
PERU*          CLOUDY    47  45  90 W15       29.49S
$$

ILZ005-006-012>014-019>023-092000-
NORTHEAST ILLINOIS

CITY           SKY/WX    TMP DP  RH WIND       PRES   REMARKS
CHICAGO-OHARE  CLOUDY    47  45  93 SW12      29.43F
CHICAGO-MIDWAY CLOUDY    48  46  93 SW14      29.45F
SCHAUMBURG     NOT AVBL
AURORA         CLOUDY    47  45  93 SW9G21    29.44F FOG
LANSING*       CLOUDY    47  47 100 SW12      29.46F FOG
JOLIET*        CLOUDY    49  49 100 SW9G16    29.45F FOG
WAUKEGAN       CLOUDY    47  43  86 SW12      29.41F
DUPAGE AIRPORT CLOUDY    47  45  93 SW9G20    29.43F FOG
KANKAKEE*      CLOUDY    48  47  97 SW12      29.50F
WHEELING       CLOUDY    48  44  86 SW8       29.44F
MORRIS*        CLOUDY    47  47  99 SW10G17   29.47S FOG
ROMEOVILLE*    CLOUDY    46  46 100 SW14      29.46F FOG
NORTHERLY ISL    N/A     47  44  90 W7          N/A
$$

LMZ740>746-092000-
SOUTHERN LAKE MICHIGAN

STATION/POSITION SKY/WX   TEMP    WIND        PRES    VSBY  WAVE
                          AIR SEA DIR/SP/G                  HT/PER
                          (F)     (DEG/KT/KT) (MB)    (MI)  (FT/S)
HARRISON CRIB              48     220/ 12/ 14   N/A
NORTHERLY ISL              47     250/  8/ 10   N/A
CALUMET HARBOR             47     200/  7/ 11  997.2F
MICHIGAN CITY              47     220/ 11/ 13   N/A
$$

ILZ025>027-034>036-040-047-049-050-058-095>099-092000-
WEST-CENTRAL ILLINOIS

CITY           SKY/WX    TMP DP  RH WIND       PRES   REMARKS
QUINCY         CLOUDY    49  42  77 NW15G26   29.59R
GALESBURG*     LGT RAIN  42  40  93 W23G30    29.56R
MACOMB*        CLOUDY    45  40  84 NW26G33   29.59R
JACKSONVILLE*  CLOUDY    49  47  92 W13       29.57S FOG
PITTSFIELD*    CLOUDY    50  49  97 W9G16     29.60R
$$

ILZ028>032-037-038-041>044-048-051>054-059>061-092000-
CENTRAL ILLINOIS

CITY           SKY/WX    TMP DP  RH WIND       PRES   REMARKS
PONTIAC        CLOUDY    49  47  96 SW17      29.51S FOG
BLOOMINGTON    CLOUDY    48  47  96 W13G24    29.52F FOG
DECATUR        CLOUDY    50  50 100 SW12G23   29.54S FOG
PEORIA         CLOUDY    49  45  86 W9        29.53S
LACON*         CLOUDY    48  45  88 W9        29.50S
LINCOLN*       CLOUDY    51  49  92 SW8       29.54S FOG
SPRINGFIELD    CLOUDY    50  47  89 W14       29.55F FOG
TAYLORVILLE    CLOUDY    50  49  99 SW12      29.56S FOG
$$

ILZ033-039-045-046-055>057-062-063-092000-
EAST-CENTRAL ILLINOIS

CITY           SKY/WX    TMP DP  RH WIND       PRES   REMARKS
CHAMPAIGN      CLOUDY    49  49 100 SW15      29.53S FOG
DANVILLE*      CLOUDY    50  50 100 SW12      29.50F FOG
RANTOUL*       CLOUDY    49  49  99 SW13G18   29.51F FOG
MATTOON        CLOUDY    51  50  96 SW9G17    29.54F FOG
PARIS*         CLOUDY    53  52  97 SW13      29.55F FOG
$$

ILZ079-100>102-092000-
SOUTHWEST ILLINOIS

CITY           SKY/WX    TMP DP  RH WIND       PRES   REMARKS
ALTON          CLOUDY    52  52 100 SW5       29.58F
CAHOKIA*       CLOUDY    55  50  83 SW6       29.58F
SPARTA*        CLOUDY    55  54  96 SW9       29.60F FOG
$$

ILZ064>066-069>071-074>076-080>082-084>086-088>090-092>094-092000-
SOUTH-CENTRAL ILLINOIS

CITY           SKY/WX    TMP DP  RH WIND       PRES   REMARKS
CARBONDALE     CLOUDY    57  54  89 S15       29.61F
CAIRO*         CLOUDY    59  57  92 SW12G20   29.64S
EFFINGHAM*     DRIZZLE   53  47  79 SW10      29.58F
MARION         CLOUDY    57  55  94 SW16      29.61F
MT. VERNON     CLOUDY    56  54  93 SW14      29.59F
CENTRALIA*     CLOUDY    55  55  98 SW10      29.58F
SALEM*         CLOUDY    56  54  95 SW12      29.58F FOG
METROPOLIS*    CLOUDY    60  57  88 SW14G22   29.64F
$$

ILZ067-068-072-073-078-083-087-091-092000-
SOUTHEAST ILLINOIS

CITY           SKY/WX    TMP DP  RH WIND       PRES   REMARKS
LAWRENCEVILLE  LGT RAIN  57  55  93 SW14      29.58F FOG
FLORA*         CLOUDY    55  54  94 SW9       29.57F FOG
FAIRFIELD*     CLOUDY    57  55  95 SW7       29.57F
HARRISBURG*    CLOUDY    59  58  98 SW15G21   29.61F
ROBINSON*      CLOUDY    54  54 100 SW14      29.58S FOG
CARMI*         CLOUDY    57  55  94 SW15G22   29.59F
$$

ABBREVIATIONS USED IN REMARKS
   TC - TEMPERATURE IN CELSIUS
  WCI - WIND CHILL INDEX
   HX - HEAT INDEX
  VSB - VISIBILITY
$$





USA.gov is the U.S. government's official web portal to all federal, state and local government web resources and services.